Regional Weather Roundup
Issued by NWS Little Rock, AR

Home | Current Version | Previous Version | Text Only | Print | Product List | Glossary On
Versions: 1 2 3 4 5 6 7 8 9 10 11 12 13 14 15 16 17 18 19 20 21 22 23 24 25 26 27 28 29 30 31 32 33 34 35 36 37 38 39 40 41 42 43 44 45 46 47 48 49 50
000
ASUS44 KLZK 010405
RWRLZK

WEATHER ROUNDUP FOR ARKANSAS
NATIONAL WEATHER SERVICE LITTLE ROCK AR
1100 PM CDT SUN APR 30 2017

NOTE: "FAIR" INDICATES FEW OR NO CLOUDS BELOW 12,000 FEET WITH NO
SIGNIFICANT WEATHER AND/OR OBSTRUCTIONS TO VISIBILITY.

ARZ001-003-010-029-010500-
NORTHWEST ARKANSAS

CITY           SKY/WX    TMP DP  RH WIND       PRES   REMARKS
FAYETTEVILLE   CLOUDY    47  37  68 SW14G26   29.64R
FORT SMITH     CLOUDY    53  34  48 SW14      29.70R
HARRISON       CLOUDY    49  33  54 SW12G22   29.63S
BENTONVILLE    CLOUDY    48  36  61 SW16G30   29.62R
ROGERS         CLOUDY    47  37  68 SW17G29   29.62R
SILOAM SPGS    CLOUDY    46  34  61 SW23G32   29.63R
HIGHFILL       LGT RAIN  48  37  65 SW15G36   29.61R
$$

ARZ004-005-016-010500-
NORTH CENTRAL ARKANSAS

CITY           SKY/WX    TMP DP  RH WIND       PRES   REMARKS
BATESVILLE     CLOUDY    59  39  47 S14G21    29.69S
FLIPPIN        CLOUDY   N/A N/A N/A SW13G21   29.61S
MTN HOME       CLOUDY    53  39  59 W12G24    29.62F
$$

ARZ040-041-010500-
WEST CENTRAL ARKANSAS

CITY           SKY/WX    TMP DP  RH WIND       PRES   REMARKS
MENA           CLOUDY    54  34  47 W15G30    29.74F
$$

ARZ009-017-025-026-028-010500-
NORTHEAST ARKANSAS

CITY           SKY/WX    TMP DP  RH WIND       PRES   REMARKS
JONESBORO      CLEAR     58  45  62 SW17      29.71F
NEWPORT        CLEAR     56  47  71 S12       29.71S
WALNUT RIDGE   CLEAR     57  41  54 S18       29.68F
BLYTHEVILLE    CLEAR     59  50  72 SW13      29.75R
$$

ARZ022-023-033-042-044-010500-
CENTRAL ARKANSAS

CITY           SKY/WX    TMP DP  RH WIND       PRES   REMARKS
LITTLE ROCK    CLOUDY    56  47  71 SW12      29.74R
N LITTLE ROCK    N/A     56  47  73 SW9G18    29.73S
JACKSONVILLE   CLOUDY    58  47  66 S15G21    29.72S
CONWAY           N/A     57  46  67 S14       29.70S
SEARCY         CLOUDY    60  47  61 S15G24    29.72F
CLINTON        CLOUDY    57  43  58 S15G23    29.68S
$$

ARZ036-010500-
EAST ARKANSAS

CITY           SKY/WX    TMP DP  RH WIND       PRES   REMARKS
WEST MEMPHIS   CLEAR     59  51  75 S10       29.76F
$$

ARZ050-053-066-070-073-010500-
SOUTHWEST ARKANSAS

CITY           SKY/WX    TMP DP  RH WIND       PRES   REMARKS
ARKADELPHIA    FAIR      56  43  61 SW10G17   29.78S
CAMDEN         CLEAR     55  46  71 S7        29.80R
TEXARKANA      CLEAR     56  37  49 W16G28    29.83R
EL DORADO      CLEAR     55  49  80 S10       29.82R
DE QUEEN       CLOUDY    55  35  47 W18G32    29.78S
$$

ARZ056-057-069-010500-
SOUTHEAST ARKANSAS

CITY           SKY/WX    TMP DP  RH WIND       PRES   REMARKS
PINE BLUFF     CLEAR     57  47  69 S15G23    29.76F
STUTTGART      PTCLDY    59  39  47 S17       29.76F
MONTICELLO     CLEAR     58  48  69 S12       29.80F

$$





USA.gov is the U.S. government's official web portal to all federal, state and local government web resources and services.